Location: Proctor
(47.8934°N, 114.3048°W)
Time: 22:10:45
(UTC+00:00)

Tiros 1 despin weight - Pass Details

Date: 29 June 2024
Orbit: 576 x 620 km, 48.2° (Epoch: 19 July)

Event Time Altitude Azimuth Distance (km) Brightness Sun altitude
Rises 20:30:40 0° 278° (W) 2,891 ? 63.4°
Reaches altitude 10° 20:32:58 10° 278° (W) 1,987 ? 63.2°
Maximum altitude 20:37:34 87° 192° (SSW) 627 ? 62.8°
Drops below altitude 10° 20:42:09 10° 101° (ESE) 1,984 ? 62.4°
Sets 20:44:27 0° 102° (ESE) 2,886 ? 62.2°
